sat.trackr.live / text

‹ back to catalog

STARLINK-4608

NORAD 53621 · 2022-104AK

PAYLOAD ACTIVE UNKNOWN

§ Identity

Operator
Country
US
Launch date
2022-08-28
Launch site
AFETR
Launch vehicle
Mass (kg)
RCS (m²)

Purposes: comms

External: N2YO · Heavens-Above · Gunter

§ Orbital elements

Epoch: 2026-05-24T23:38:29.272128Z

Period
95.44 min
Inclination
53.2158°
Eccentricity
0.0000612
Mean motion
15.08835245 rev/d
Perigee alt
539.3 km
Apogee alt
540.2 km
Semi-major
6,917.9 km
B*
2.1985e-5
RAAN
251.5698°
Arg perigee
50.1228°
Mean anomaly
309.9818°
Rev number
20,715

§ Raw data

STARLINK-46081 53621U 22104AK  26144.98506102  .00000062  00000+0  21985-4 0  99902 53621  53.2158 251.5698 0000612  50.1228 309.9818 15.08835245207150

JSON: /api/v1/satellites/53621 · /tle

For live sub-satellite position, see the globe view (requires WebGL).

§ Visibility from observer

Set your observer location to see the next 7 days of passes ≥ 10°. The values pass through the URL so the page stays shareable.

No JS? Fill the form by hand. The geolocation button needs JavaScript.